This demonstration page uses our WeatherBlox Daily Observations layout. Learn more.

Left ArrowRight Arrow

44.8408, -93.29828

Hourly Observations for October 3, 2022

Temp ( °F °C ) Dew Point ( °F °C ) Humidity (%) Winds ( mph kmh ) Pressure ( in mb ) Visibility ( mi km ) Precip ( " mm )
12:53 am 00:53 Cloudy 61 16.1 50 10 67 67 SSE 10 17 30.27 1025 10 16 0.00 0.00
1:53 am 01:53 Cloudy 62 16.7 50 10 65 65 S 13 20 30.26 1025 10 16 0.00 0.00
2:53 am 02:53 Cloudy 61 16.1 49 9.4 64 64 SSE 7 11 30.27 1025 10 16 0.00 0.00
3:53 am 03:53 Cloudy 60 15.6 49 9.4 67 67 SSE 6 9 30.27 1025 10 16 0.00 0.00
4:53 am 04:53 Cloudy 60 15.6 49 9.4 67 67 SSE 7 11 30.28 1025 10 16 0.00 0.00
5:53 am 05:53 Cloudy 59 15 49 9.4 69 69 SE 7 11 30.28 1025 10 16 0.00 0.00
6:53 am 06:53 Mostly Cloudy 57 13.9 49 9.4 74 74 SSE 9 15 30.29 1026 10 16 0.00 0.00
7:53 am 07:53 Mostly Cloudy 57 13.9 49 9.4 74 74 SSE 9 15 30.30 1026 10 16 0.00 0.00
8:53 am 08:53 Mostly Cloudy 59 15 49 9.4 69 69 S 10 17 30.30 1026 10 16 0.00 0.00
9:53 am 09:53 Mostly Cloudy 61 16.1 50 10 67 67 S 10 17 30.30 1026 10 16 0.00 0.00
10:53 am 10:53 Mostly Cloudy 65 18.3 50 10 58 58 S 10 17 30.29 1026 10 16 0.00 0.00
11:53 am 11:53 Mostly Cloudy 68 20 49 9.4 50 50 S 13 20 30.28 1025 10 16 0.00 0.00
12:53 pm 12:53 Mostly Cloudy 71 21.7 49 9.4 45 45 S 12 19 30.25 1024 10 16 0.00 0.00
1:53 pm 13:53 Mostly Cloudy 74 23.3 48 8.9 40 40 SSE 13 20 30.23 1024 10 16 0.00 0.00
2:53 pm 14:53 Mostly Cloudy 75 23.9 48 8.9 38 38 S 13 20 30.21 1023 10 16 0.00 0.00
3:53 pm 15:53 Mostly Cloudy 76 24.4 48 8.9 37 37 S 10 17 30.19 1023 10 16 0.00 0.00
4:53 pm 16:53 Mostly Cloudy 75 23.9 44 6.7 33 33 S 10 17 30.18 1022 10 16 0.00 0.00
5:53 pm 17:53 Mostly Cloudy 75 23.9 43 6.1 32 32 S 12 19 30.17 1022 10 16 0.00 0.00
6:53 pm 18:53 Mostly Cloudy 72 22.2 45 7.2 38 38 SSE 6 9 30.18 1022 10 16 0.00 0.00
7:53 pm 19:53 Partly Cloudy 67 19.4 47 8.3 49 49 SSE 7 11 30.18 1022 10 16 0.00 0.00
8:53 pm 20:53 Partly Cloudy 66 18.9 47 8.3 50 50 SSE 8 13 30.18 1022 10 16 0.00 0.00
9:53 pm 21:53 Mostly Clear 64 17.8 46 7.8 52 52 SSE 8 13 30.18 1022 10 16 0.00 0.00
10:53 pm 22:53 Partly Cloudy 65 18.3 45 7.2 48 48 S 6 9 30.17 1022 10 16 0.00 0.00
11:53 pm 23:53 Mostly Cloudy 63 17.2 45 7.2 52 52 SSE 7 11 30.19 1022 10 16 0.00 0.00

Powered by AerisWeather